TimeCET,TemperatureF,Dew PointF,Humidity,Sea Level PressureIn,VisibilityMPH,Wind Direction,Wind SpeedMPH,Gust SpeedMPH,PrecipitationIn,Events,Conditions,WindDirDegrees,DateUTC
12:07 AM,-9999,-9999,N/A,30.43,3.1,South,2.3,-,N/A,,Clear,190,2012-11-13 23:07:00
12:09 AM,-9999,-9999,N/A,30.43,-9999.0,SSW,2.3,-,N/A,,Clear,210,2012-11-13 23:09:00
12:10 AM,-9999,-9999,N/A,30.43,3.1,SW,2.3,-,N/A,,Clear,220,2012-11-13 23:10:00
12:11 AM,-9999,-9999,N/A,30.43,-9999.0,SSW,1.2,-,N/A,,Clear,210,2012-11-13 23:11:00
12:38 AM,-9999,-9999,N/A,30.43,3.1,West,3.5,-,N/A,,Clear,280,2012-11-13 23:38:00
12:48 AM,26.6,-9999,N/A,30.45,3.7,Variable,2.3,-,N/A,,Clear,0,2012-11-13 23:48:00
12:55 AM,26.8,-9999,N/A,30.45,3.7,WNW,2.3,-,N/A,,Clear,290,2012-11-13 23:55:00
1:55 AM,24.4,-9999,N/A,30.45,3.7,WSW,1.2,-,N/A,,Clear,250,2012-11-14 00:55:00
2:55 AM,26.2,-9999,N/A,30.45,5.6,Variable,1.2,-,N/A,,Clear,0,2012-11-14 01:55:00
3:48 AM,24.8,-9999,N/A,30.45,3.7,Variable,1.2,-,N/A,,Partly Cloudy,0,2012-11-14 02:48:00
3:55 AM,25.0,-9999,N/A,30.45,3.7,WNW,2.3,-,N/A,,Scattered Clouds,300,2012-11-14 02:55:00
3:56 AM,-9999,-9999,N/A,30.43,3.7,NW,1.2,-,N/A,,Mostly Cloudy,320,2012-11-14 02:56:00
4:04 AM,24.8,-9999,N/A,30.45,3.7,NW,2.3,-,N/A,,Mostly Cloudy,310,2012-11-14 03:04:00
4:55 AM,26.2,-9999,N/A,30.44,3.7,Variable,1.2,-,N/A,,Mostly Cloudy,0,2012-11-14 03:55:00
4:56 AM,-9999,-9999,N/A,30.41,3.7,NW,1.2,-,N/A,,Scattered Clouds,310,2012-11-14 03:56:00
5:04 AM,26.6,-9999,N/A,30.44,5.0,Variable,1.2,-,N/A,,Scattered Clouds,0,2012-11-14 04:04:00
5:20 AM,-9999,-9999,N/A,30.41,5.0,WNW,2.3,-,N/A,,Mostly Cloudy,290,2012-11-14 04:20:00
5:29 AM,-9999,-9999,N/A,30.41,5.0,NNW,2.3,-,N/A,,Mostly Cloudy,340,2012-11-14 04:29:00
5:34 AM,28.4,-9999,N/A,30.43,5.6,Variable,1.2,-,N/A,,Mostly Cloudy,0,2012-11-14 04:34:00
5:55 AM,30.9,-9999,N/A,30.43,6.2,Variable,4.6,-,N/A,,Mostly Cloudy,0,2012-11-14 04:55:00
6:55 AM,32.0,-9999,N/A,30.42,6.2,East,3.5,-,N/A,,Overcast,90,2012-11-14 05:55:00
7:55 AM,33.8,-9999,N/A,30.43,6.2,Variable,2.3,-,N/A,,Overcast,0,2012-11-14 06:55:00
8:55 AM,34.7,-9999,N/A,30.42,6.2,Variable,6.9,-,N/A,,Overcast,0,2012-11-14 07:55:00
9:55 AM,35.1,-9999,N/A,30.41,6.2,Variable,3.5,-,N/A,,Overcast,0,2012-11-14 08:55:00
10:55 AM,36.1,-9999,N/A,30.41,6.2,Variable,3.5,-,N/A,,Overcast,0,2012-11-14 09:55:00
11:20 AM,37.4,32.0,81,30.38,6.2,East,3.5,-,N/A,,Overcast,90,2012-11-14 10:20:00
11:34 AM,37.4,-9999,N/A,30.39,6.2,Variable,4.6,-,N/A,,Overcast,0,2012-11-14 10:34:00
11:55 AM,37.0,-9999,N/A,30.38,6.2,East,6.9,-,N/A,,Overcast,90,2012-11-14 10:55:00
12:04 PM,37.4,-9999,N/A,30.38,6.2,East,9.2,-,N/A,,Overcast,90,2012-11-14 11:04:00
12:55 PM,38.3,-9999,N/A,30.36,6.2,ENE,5.8,16.1,N/A,,Overcast,70,2012-11-14 11:55:00
1:55 PM,39.2,-9999,N/A,30.34,6.2,East,8.1,17.3,N/A,,Overcast,90,2012-11-14 12:55:00
2:55 PM,39.9,-9999,N/A,30.33,6.2,East,4.6,-,N/A,,Overcast,100,2012-11-14 13:55:00
3:55 PM,39.0,-9999,N/A,30.32,6.2,ENE,8.1,-,N/A,,Mostly Cloudy,70,2012-11-14 14:55:00
4:55 PM,39.9,-9999,N/A,30.32,6.2,East,6.9,-,N/A,,Overcast,100,2012-11-14 15:55:00
5:55 PM,40.8,-9999,N/A,30.31,6.2,East,11.5,-,N/A,,Overcast,90,2012-11-14 16:55:00
6:55 PM,38.7,-9999,N/A,30.31,6.2,SE,3.5,-,N/A,,Overcast,140,2012-11-14 17:55:00
7:55 PM,39.2,-9999,N/A,30.30,6.2,SE,8.1,-,N/A,,Mostly Cloudy,130,2012-11-14 18:55:00
8:55 PM,39.6,-9999,N/A,30.29,6.2,East,6.9,-,N/A,,Overcast,100,2012-11-14 19:55:00
9:55 PM,37.6,-9999,N/A,30.29,6.2,East,5.8,-,N/A,,Overcast,90,2012-11-14 20:55:00
10:55 PM,27.3,-9999,N/A,30.29,6.2,East,6.9,-,N/A,,Overcast,100,2012-11-14 21:55:00
11:55 PM,27.1,-9999,N/A,30.27,6.2,ESE,8.1,12.7,N/A,,Overcast,110,2012-11-14 22:55:00